User: anonymous   Login
Location: Unspecified
(0.0000°N, 0.0000°E)
Time: 06:03:40
(UTC+00:00)
Language:

SICH 2 - Orbit

View from above orbital plane
View from above orbital plane
View from above satellite
View from above satellite

Ground track
Ground track

The orbit data is extracted from the following two-line orbital elements,

1 37794U 11044G   18349.86225931  .00000035  00000-0  16225-4 0  9999
2 37794  98.0160  56.5186 0012675 186.1314 305.2327 14.61808418390962
Epoch (UTC): 15 December 2018 20:41:39
Eccentricity: 0.0012675
inclination: 98.0160°
perigee height: 678 km
apogee height: 696 km
right ascension of ascending node: 56.5186°
argument of perigee: 186.1314°
revolutions per day: 14.61808418
mean anomaly at epoch: 305.2327°
orbit number at epoch: 39096

The dashed part of the orbit path shows where the satellite is in the earth's shadow,  

DLR